Time+07,TemperatureF,Dew PointF,Humidity,Sea Level PressureIn,VisibilityMPH,Wind Direction,Wind SpeedMPH,Gust SpeedMPH,PrecipitationIn,Events,Conditions,WindDirDegrees,DateUTC
12:00 AM,78.8,69.8,74,29.92,5.6,Calm,Calm,-,N/A,,Scattered Clouds,0,2013-03-14 17:00:00
1:00 AM,80,74,77,29.87,6,Calm,Calm,,,,Mist,,2013-03-14 18:00:00
1:00 AM,78.8,71.6,78,29.92,5.6,ENE,2.3,-,N/A,,Scattered Clouds,60,2013-03-14 18:00:00
1:30 AM,78.8,71.6,78,29.89,5.6,Calm,Calm,-,N/A,,Scattered Clouds,0,2013-03-14 18:30:00
2:00 AM,78.8,71.6,78,29.89,5.6,Calm,Calm,-,N/A,,Scattered Clouds,0,2013-03-14 19:00:00
2:30 AM,78.8,71.6,78,29.86,5.6,East,3.5,-,N/A,,Scattered Clouds,80,2013-03-14 19:30:00
3:00 AM,78.8,71.6,78,29.86,5.6,NNE,2.3,-,N/A,,Scattered Clouds,30,2013-03-14 20:00:00
3:30 AM,78.8,73.4,83,29.86,5.6,Calm,Calm,-,N/A,,Scattered Clouds,0,2013-03-14 20:30:00
4:00 AM,77.0,71.6,83,29.86,5.6,East,3.5,-,N/A,,Scattered Clouds,80,2013-03-14 21:00:00
4:30 AM,77.0,71.6,83,29.86,5.6,Calm,Calm,-,N/A,,Scattered Clouds,0,2013-03-14 21:30:00
5:30 AM,77.0,71.6,83,29.86,5.6,ENE,2.3,-,N/A,,Scattered Clouds,70,2013-03-14 22:30:00
6:00 AM,77.0,71.6,83,29.86,5.6,Calm,Calm,-,N/A,,Scattered Clouds,0,2013-03-14 23:00:00
6:30 AM,75.2,71.6,89,29.86,5.6,Calm,Calm,-,N/A,,Scattered Clouds,0,2013-03-14 23:30:00
7:00 AM,75.2,71.6,89,29.89,5.0,Calm,Calm,-,N/A,,Mostly Cloudy,0,2013-03-15 00:00:00
7:30 AM,78.8,73.4,83,29.89,5.0,Calm,Calm,-,N/A,,Mostly Cloudy,0,2013-03-15 00:30:00
8:00 AM,82.4,75.2,79,29.92,5.0,Calm,Calm,-,N/A,,Scattered Clouds,0,2013-03-15 01:00:00
8:30 AM,84.2,73.4,70,29.92,5.0,East,6.9,-,N/A,,Mostly Cloudy,80,2013-03-15 01:30:00
9:00 AM,86.0,73.4,66,29.92,4.3,East,10.4,-,N/A,,Mostly Cloudy,100,2013-03-15 02:00:00
9:30 AM,87.8,71.6,58,29.95,4.3,East,10.4,-,N/A,,Mostly Cloudy,80,2013-03-15 02:30:00
10:00 AM,87.8,73.4,62,29.95,5.0,East,11.5,-,N/A,,Mostly Cloudy,80,2013-03-15 03:00:00
10:30 AM,89.6,71.6,55,29.95,5.0,East,13.8,-,N/A,,Mostly Cloudy,90,2013-03-15 03:30:00
11:00 AM,89.6,68.0,49,29.95,5.0,East,11.5,-,N/A,,Scattered Clouds,90,2013-03-15 04:00:00
11:30 AM,91.4,66.2,43,29.95,5.0,ENE,8.1,-,N/A,,Scattered Clouds,60,2013-03-15 04:30:00
12:00 PM,91.4,66.2,43,29.92,5.0,East,11.5,-,N/A,,Scattered Clouds,90,2013-03-15 05:00:00
12:30 PM,93.2,68.0,44,29.92,5.0,East,10.4,-,N/A,,Scattered Clouds,90,2013-03-15 05:30:00
1:00 PM,92,71,42,29.90,5,East,8.1,,,,Haze,90,2013-03-15 06:00:00
1:00 PM,93.2,66.2,41,29.89,5.0,East,11.5,-,N/A,,Scattered Clouds,100,2013-03-15 06:00:00
1:30 PM,93.2,66.2,41,29.89,5.0,East,10.4,-,N/A,,Scattered Clouds,100,2013-03-15 06:30:00
2:00 PM,93.2,68.0,44,29.86,5.0,East,11.5,-,N/A,,Scattered Clouds,100,2013-03-15 07:00:00
2:30 PM,93.2,68.0,44,29.86,5.0,East,10.4,-,N/A,,Scattered Clouds,90,2013-03-15 07:30:00
3:00 PM,95.0,66.2,39,29.83,5.0,East,11.5,-,N/A,,Scattered Clouds,100,2013-03-15 08:00:00
3:30 PM,95.0,66.2,39,29.83,5.0,ENE,10.4,-,N/A,,Scattered Clouds,70,2013-03-15 08:30:00
4:00 PM,95.0,66.2,39,29.80,5.6,East,9.2,-,N/A,,Scattered Clouds,80,2013-03-15 09:00:00
4:30 PM,93.2,68.0,44,29.80,5.6,East,9.2,-,N/A,,Mostly Cloudy,80,2013-03-15 09:30:00
5:00 PM,93.2,68.0,44,29.80,5.6,East,10.4,-,N/A,,Mostly Cloudy,100,2013-03-15 10:00:00
5:30 PM,91.4,69.8,49,29.83,5.6,East,11.5,-,N/A,,Mostly Cloudy,90,2013-03-15 10:30:00
6:00 PM,91.4,69.8,49,29.83,5.6,East,12.7,-,N/A,,Mostly Cloudy,100,2013-03-15 11:00:00
6:30 PM,87.8,71.6,58,29.83,5.0,East,8.1,-,N/A,,Scattered Clouds,100,2013-03-15 11:30:00
7:00 PM,88,75,57,29.81,5,East,5.8,,,,Mist,90,2013-03-15 12:00:00
7:00 PM,87.8,68.0,52,29.83,5.0,East,9.2,-,N/A,,Mostly Cloudy,90,2013-03-15 12:00:00
7:30 PM,86.0,69.8,58,29.86,5.0,East,6.9,-,N/A,,Mostly Cloudy,90,2013-03-15 12:30:00
8:00 PM,84.2,71.6,66,29.86,5.0,ENE,3.5,-,N/A,,Mostly Cloudy,70,2013-03-15 13:00:00
8:30 PM,84.2,71.6,66,29.89,5.0,Variable,2.3,-,N/A,,Mostly Cloudy,0,2013-03-15 13:30:00
9:00 PM,84.2,71.6,66,29.89,5.0,Variable,2.3,-,N/A,,Mostly Cloudy,0,2013-03-15 14:00:00
9:30 PM,82.4,71.6,70,29.92,5.0,Variable,2.3,-,N/A,,Mostly Cloudy,0,2013-03-15 14:30:00
10:00 PM,84.2,71.6,66,29.92,5.0,East,3.5,-,N/A,,Scattered Clouds,90,2013-03-15 15:00:00
10:30 PM,84.2,71.6,66,29.95,5.0,ESE,4.6,-,N/A,,Scattered Clouds,110,2013-03-15 15:30:00
11:00 PM,84.2,71.6,66,29.95,5.0,East,5.8,-,N/A,,Scattered Clouds,100,2013-03-15 16:00:00
11:30 PM,84.2,69.8,62,29.92,5.0,East,5.8,-,N/A,,Scattered Clouds,80,2013-03-15 16:30:00